TAP1EK LPPT-LPPR

Flight info

Callsign TAP1EK
Flight time 0h 34m
Altitude 22000
Route IXIDA1N IXIDA DCT ABLEG ABLEG6C
Aircraft A320/M-SDE3FGHIRWY/LB1

Departure

Time 2026-05-07 19:37
Airport Lisbon Humberto Delgado Airport (LPPT)

Arrival

Time 2026-05-07 20:11
Airport Francisco de Sá Carneiro Airport (LPPR)
Time Latitude Longitude Altitude Speed Heading
2026-05-07 19:08 38.77115 -9.13111 337 ft 0 kts 78°
2026-05-07 19:24 38.77112 -9.13130 333 ft 4 kts 78°
2026-05-07 19:24 38.77107 -9.13163 334 ft 4 kts 90°
2026-05-07 19:24 38.77113 -9.13194 334 ft 4 kts 134°
2026-05-07 19:25 38.77129 -9.13206 335 ft 1 kts 168°
2026-05-07 19:25 38.77133 -9.13207 335 ft 0 kts 168°
2026-05-07 19:28 38.77117 -9.13203 335 ft 6 kts 168°
2026-05-07 19:28 38.77070 -9.13191 339 ft 8 kts 168°
2026-05-07 19:29 38.76983 -9.13168 339 ft 17 kts 167°
2026-05-07 19:29 38.76899 -9.13145 339 ft 10 kts 168°
2026-05-07 19:29 38.76835 -9.13128 337 ft 9 kts 168°
2026-05-07 19:29 38.76787 -9.13148 338 ft 7 kts 230°
2026-05-07 19:30 38.76773 -9.13209 336 ft 7 kts 259°
2026-05-07 19:30 38.76762 -9.13280 350 ft 9 kts 258°
2026-05-07 19:30 38.76747 -9.13358 343 ft 9 kts 249°
2026-05-07 19:30 38.76691 -9.13428 347 ft 15 kts 214°
2026-05-07 19:31 38.76646 -9.13539 350 ft 15 kts 258°
2026-05-07 19:31 38.76624 -9.13668 346 ft 15 kts 258°
2026-05-07 19:31 38.76601 -9.13804 346 ft 16 kts 258°
2026-05-07 19:31 38.76578 -9.13949 348 ft 14 kts 259°
2026-05-07 19:32 38.76531 -9.14052 355 ft 13 kts 228°
2026-05-07 19:32 38.76494 -9.14153 345 ft 13 kts 269°
2026-05-07 19:32 38.76505 -9.14206 350 ft 0 kts 293°
2026-05-07 19:33 38.76519 -9.14248 338 ft 8 kts 293°
2026-05-07 19:33 38.76536 -9.14300 336 ft 0 kts 293°
2026-05-07 19:34 38.76537 -9.14304 336 ft 2 kts 293°
2026-05-07 19:34 38.76550 -9.14341 333 ft 6 kts 293°
2026-05-07 19:35 38.76571 -9.14388 331 ft 6 kts 312°
2026-05-07 19:35 38.76600 -9.14405 336 ft 4 kts 351°
2026-05-07 19:35 38.76630 -9.14395 334 ft 0 kts 23°
2026-05-07 19:36 38.76656 -9.14381 336 ft 23 kts 23°
2026-05-07 19:36 38.77048 -9.14172 354 ft 95 kts 22°
2026-05-07 19:36 38.77837 -9.13749 364 ft 149 kts 22°
2026-05-07 19:36 38.78893 -9.13182 573 ft 177 kts 22°
2026-05-07 19:37 38.80070 -9.12537 1143 ft 185 kts 22°
2026-05-07 19:37 38.81249 -9.11896 1813 ft 183 kts 24°
2026-05-07 19:37 38.82382 -9.11083 2372 ft 193 kts 30°
2026-05-07 19:37 38.83576 -9.10162 2798 ft 208 kts 31°
2026-05-07 19:38 38.84862 -9.09169 3197 ft 225 kts 31°
2026-05-07 19:38 38.86134 -9.08185 3577 ft 243 kts 31°
2026-05-07 19:38 38.87178 -9.07376 3960 ft 255 kts 31°
2026-05-07 19:38 38.88739 -9.06167 4597 ft 267 kts 31°
2026-05-07 19:39 38.90245 -9.04749 5440 ft 270 kts 43°
2026-05-07 19:39 38.91636 -9.03106 6283 ft 274 kts 42°
2026-05-07 19:39 38.93057 -9.01447 7111 ft 278 kts 42°
2026-05-07 19:39 38.94498 -8.99773 7930 ft 281 kts 42°
2026-05-07 19:40 38.95955 -8.98079 8731 ft 284 kts 42°
2026-05-07 19:40 38.97430 -8.96364 9517 ft 288 kts 42°
2026-05-07 19:40 38.98919 -8.94627 10266 ft 292 kts 42°
2026-05-07 19:40 39.00463 -8.92822 10703 ft 308 kts 42°
2026-05-07 19:41 39.02095 -8.90916 11086 ft 325 kts 42°
2026-05-07 19:41 39.03804 -8.88919 11566 ft 337 kts 42°
2026-05-07 19:41 39.05550 -8.86880 12247 ft 341 kts 42°
2026-05-07 19:41 39.07315 -8.84817 12952 ft 344 kts 42°
2026-05-07 19:42 39.09094 -8.82732 13623 ft 348 kts 42°
2026-05-07 19:42 39.10891 -8.80626 14279 ft 351 kts 42°
2026-05-07 19:42 39.12709 -8.78496 14917 ft 355 kts 42°
2026-05-07 19:42 39.14539 -8.76349 15539 ft 358 kts 42°
2026-05-07 19:43 39.16386 -8.74176 16144 ft 361 kts 43°
2026-05-07 19:43 39.18103 -8.71796 16740 ft 364 kts 48°
2026-05-07 19:43 39.19785 -8.69333 17311 ft 367 kts 48°
2026-05-07 19:43 39.21478 -8.66847 17876 ft 371 kts 49°
2026-05-07 19:44 39.23186 -8.64340 18427 ft 374 kts 48°
2026-05-07 19:44 39.24910 -8.61813 18967 ft 377 kts 48°
2026-05-07 19:44 39.26647 -8.59268 19517 ft 380 kts 48°
2026-05-07 19:44 39.28401 -8.56692 20034 ft 383 kts 49°
2026-05-07 19:45 39.30138 -8.54134 20545 ft 386 kts 49°
2026-05-07 19:45 39.31914 -8.51516 21053 ft 389 kts 49°
2026-05-07 19:45 39.33704 -8.48879 21547 ft 392 kts 49°
2026-05-07 19:45 39.35508 -8.46223 21914 ft 395 kts 49°
2026-05-07 19:46 39.37311 -8.43563 21995 ft 388 kts 49°
2026-05-07 19:46 39.39056 -8.40986 22010 ft 378 kts 49°
2026-05-07 19:46 39.40791 -8.38426 22009 ft 378 kts 49°
2026-05-07 19:46 39.42522 -8.35867 22009 ft 378 kts 49°
2026-05-07 19:47 39.44253 -8.33305 22009 ft 378 kts 49°
2026-05-07 19:47 39.45983 -8.30739 22009 ft 378 kts 49°
2026-05-07 19:47 39.47710 -8.28180 22009 ft 378 kts 49°
2026-05-07 19:47 39.49437 -8.25617 22009 ft 378 kts 49°
2026-05-07 19:48 39.51167 -8.23049 22009 ft 378 kts 49°
2026-05-07 19:48 39.52896 -8.20480 22010 ft 379 kts 49°
2026-05-07 19:48 39.54625 -8.17909 22016 ft 379 kts 49°
2026-05-07 19:48 39.56355 -8.15334 22018 ft 379 kts 49°
2026-05-07 19:49 39.58084 -8.12756 22019 ft 379 kts 49°
2026-05-07 19:49 39.59813 -8.10177 22020 ft 379 kts 49°
2026-05-07 19:49 39.61562 -8.07618 22022 ft 379 kts 44°
2026-05-07 19:49 39.63624 -8.05509 22021 ft 378 kts 30°
2026-05-07 19:50 39.66025 -8.04140 22015 ft 378 kts 15°
2026-05-07 19:50 39.68611 -8.03585 22011 ft 377 kts
2026-05-07 19:50 39.71218 -8.03877 22008 ft 376 kts 347°
2026-05-07 19:50 39.73738 -8.04806 22004 ft 377 kts 343°
2026-05-07 19:51 39.76253 -8.05775 22009 ft 377 kts 343°
2026-05-07 19:51 39.78772 -8.06742 22014 ft 377 kts 343°
2026-05-07 19:51 39.81287 -8.07706 22017 ft 377 kts 343°
2026-05-07 19:51 39.83804 -8.08669 22020 ft 377 kts 343°
2026-05-07 19:52 39.86318 -8.09632 22019 ft 378 kts 343°
2026-05-07 19:52 39.88840 -8.10600 22019 ft 378 kts 343°
2026-05-07 19:52 39.91344 -8.11564 21847 ft 371 kts 343°
2026-05-07 19:52 39.93754 -8.12494 21616 ft 362 kts 343°
2026-05-07 19:53 39.96139 -8.13415 21357 ft 353 kts 343°
2026-05-07 19:53 39.98489 -8.14322 21105 ft 352 kts 343°
2026-05-07 19:53 40.00810 -8.15220 20858 ft 351 kts 343°
2026-05-07 19:53 40.03170 -8.16132 20606 ft 349 kts 343°
2026-05-07 19:54 40.05500 -8.17030 20355 ft 349 kts 343°
2026-05-07 19:54 40.07827 -8.17924 20104 ft 348 kts 343°
2026-05-07 19:54 40.10151 -8.18819 19853 ft 347 kts 343°
2026-05-07 19:54 40.12457 -8.19711 19598 ft 344 kts 343°
2026-05-07 19:55 40.14743 -8.20599 19355 ft 341 kts 343°
2026-05-07 19:55 40.17014 -8.21482 19105 ft 340 kts 343°
2026-05-07 19:55 40.19278 -8.22364 18855 ft 339 kts 343°
2026-05-07 19:55 40.21530 -8.23241 18604 ft 337 kts 343°
2026-05-07 19:56 40.23776 -8.24113 18354 ft 336 kts 343°
2026-05-07 19:56 40.26013 -8.24982 18104 ft 335 kts 343°
2026-05-07 19:56 40.28243 -8.25850 17854 ft 334 kts 343°
2026-05-07 19:56 40.30335 -8.26666 17617 ft 332 kts 343°
2026-05-07 19:57 40.32546 -8.27527 17368 ft 331 kts 343°
2026-05-07 19:57 40.34749 -8.28381 17117 ft 330 kts 343°
2026-05-07 19:57 40.36944 -8.29232 16865 ft 328 kts 343°
2026-05-07 19:57 40.39133 -8.30084 16618 ft 328 kts 343°
2026-05-07 19:58 40.41313 -8.30938 16375 ft 326 kts 343°
2026-05-07 19:58 40.43480 -8.31791 16123 ft 325 kts 343°
2026-05-07 19:58 40.45641 -8.32640 15875 ft 321 kts 343°
2026-05-07 19:58 40.47771 -8.33476 15541 ft 318 kts 343°
2026-05-07 19:59 40.49885 -8.34308 15164 ft 317 kts 343°
2026-05-07 19:59 40.51991 -8.35135 14787 ft 315 kts 343°
2026-05-07 19:59 40.54088 -8.35957 14403 ft 314 kts 343°
2026-05-07 19:59 40.56175 -8.36773 14023 ft 312 kts 343°
2026-05-07 20:00 40.58254 -8.37586 13641 ft 311 kts 343°
2026-05-07 20:00 40.60323 -8.38398 13263 ft 310 kts 343°
2026-05-07 20:00 40.62356 -8.39196 12892 ft 308 kts 343°
2026-05-07 20:00 40.64402 -8.40001 12503 ft 306 kts 343°
2026-05-07 20:01 40.66439 -8.40805 12122 ft 305 kts 343°
2026-05-07 20:01 40.68466 -8.41605 11736 ft 303 kts 343°
2026-05-07 20:01 40.70481 -8.42398 11342 ft 302 kts 343°
2026-05-07 20:01 40.72459 -8.43254 11013 ft 298 kts 336°
2026-05-07 20:02 40.74306 -8.44485 10612 ft 296 kts 332°
2026-05-07 20:02 40.76124 -8.45748 10193 ft 296 kts 332°
2026-05-07 20:02 40.77933 -8.47006 9836 ft 293 kts 332°
2026-05-07 20:02 40.79737 -8.48256 9438 ft 291 kts 332°
2026-05-07 20:03 40.81530 -8.49493 9012 ft 291 kts 332°
2026-05-07 20:03 40.83308 -8.50718 8639 ft 288 kts 332°
2026-05-07 20:03 40.85082 -8.51942 8237 ft 286 kts 332°
2026-05-07 20:03 40.86838 -8.53153 7800 ft 285 kts 332°
2026-05-07 20:04 40.88583 -8.54359 7404 ft 282 kts 332°
2026-05-07 20:04 40.90289 -8.55543 7012 ft 270 kts 332°
2026-05-07 20:04 40.91910 -8.56670 6652 ft 256 kts 332°
2026-05-07 20:04 40.93451 -8.57743 6319 ft 246 kts 332°
2026-05-07 20:05 40.94940 -8.58775 5976 ft 237 kts 332°
2026-05-07 20:05 40.96367 -8.59763 5655 ft 227 kts 332°
2026-05-07 20:05 40.97733 -8.60709 5355 ft 217 kts 332°
2026-05-07 20:05 40.99114 -8.61377 5077 ft 209 kts 348°
2026-05-07 20:06 41.00519 -8.61739 4814 ft 204 kts 348°
2026-05-07 20:06 41.01899 -8.62105 4508 ft 200 kts 348°
2026-05-07 20:06 41.03250 -8.62467 4234 ft 196 kts 348°
2026-05-07 20:06 41.04569 -8.62821 3971 ft 192 kts 348°
2026-05-07 20:07 41.05858 -8.63166 3747 ft 186 kts 348°
2026-05-07 20:07 41.07109 -8.63497 3531 ft 181 kts 348°
2026-05-07 20:07 41.08320 -8.63814 3297 ft 174 kts 348°
2026-05-07 20:07 41.09468 -8.64113 3076 ft 167 kts 348°
2026-05-07 20:08 41.10589 -8.64406 2856 ft 160 kts 348°
2026-05-07 20:08 41.11650 -8.64684 2645 ft 153 kts 348°
2026-05-07 20:08 41.12695 -8.64939 2343 ft 152 kts 348°
2026-05-07 20:08 41.13735 -8.65194 2101 ft 152 kts 348°
2026-05-07 20:09 41.14767 -8.65468 1869 ft 151 kts 347°
2026-05-07 20:09 41.15792 -8.65766 1650 ft 151 kts 347°
2026-05-07 20:09 41.16820 -8.66033 1439 ft 150 kts 347°
2026-05-07 20:10 41.18869 -8.66554 1036 ft 149 kts 348°
2026-05-07 20:10 41.19886 -8.66830 885 ft 149 kts 347°
2026-05-07 20:10 41.20901 -8.67100 729 ft 149 kts 348°
2026-05-07 20:10 41.21586 -8.67281 613 ft 148 kts 347°
2026-05-07 20:11 41.22597 -8.67549 417 ft 148 kts 348°
2026-05-07 20:11 41.23608 -8.67810 243 ft 148 kts 349°
2026-05-07 20:11 41.24603 -8.68069 238 ft 65 kts 349°
2026-05-07 20:11 41.24823 -8.68125 237 ft 36 kts 348°
2026-05-07 20:12 41.25079 -8.68166 236 ft 35 kts
2026-05-07 20:12 41.25243 -8.68113 237 ft 12 kts 20°
2026-05-07 20:12 41.25289 -8.68059 237 ft 7 kts 79°
2026-05-07 20:12 41.25269 -8.68015 235 ft 5 kts 146°
2026-05-07 20:13 41.25220 -8.67999 237 ft 10 kts 169°
2026-05-07 20:13 41.25140 -8.67980 235 ft 14 kts 167°
2026-05-07 20:13 41.25032 -8.67951 237 ft 18 kts 170°
2026-05-07 20:13 41.24903 -8.67914 237 ft 20 kts 165°
2026-05-07 20:14 41.24765 -8.67826 239 ft 18 kts 160°
2026-05-07 20:14 41.24626 -8.67792 235 ft 23 kts 168°
2026-05-07 20:14 41.24504 -8.67758 235 ft 18 kts 169°
2026-05-07 20:14 41.24386 -8.67727 235 ft 17 kts 169°
2026-05-07 20:15 41.24297 -8.67688 237 ft 11 kts 144°
2026-05-07 20:15 41.24249 -8.67614 235 ft 10 kts 131°
2026-05-07 20:15 41.24193 -8.67570 240 ft 11 kts 164°
2026-05-07 20:15 41.24114 -8.67550 239 ft 11 kts 169°
2026-05-07 20:16 41.24032 -8.67529 237 ft 17 kts 169°
2026-05-07 20:16 41.23904 -8.67495 239 ft 20 kts 169°
2026-05-07 20:16 41.23783 -8.67464 235 ft 14 kts 167°
2026-05-07 20:16 41.23728 -8.67404 237 ft 9 kts 126°
2026-05-07 20:17 41.23687 -8.67350 237 ft 8 kts 150°
2026-05-07 20:17 41.23638 -8.67332 235 ft 7 kts 167°
2026-05-07 20:17 41.23602 -8.67326 236 ft 4 kts 156°
2026-05-07 20:17 41.23589 -8.67304 239 ft 0 kts 116°
2026-05-07 20:18 41.23591 -8.67284 239 ft 4 kts 85°
2026-05-07 20:18 41.23593 -8.67247 236 ft 4 kts 88°
2026-05-07 20:18 41.23593 -8.67232 237 ft 0 kts 89°